TimeCST,TemperatureF,Dew PointF,Humidity,Sea Level PressureIn,VisibilityMPH,Wind Direction,Wind SpeedMPH,Gust SpeedMPH,PrecipitationIn,Events,Conditions,WindDirDegrees,DateUTC
1:53 AM,34.0,27.0,75,30.06,10.0,NW,15.0,21.9,N/A,,Overcast,310,2013-03-05 07:53:00
2:53 AM,32.0,17.1,54,30.07,10.0,NW,17.3,29.9,N/A,,Overcast,310,2013-03-05 08:53:00
3:53 AM,28.9,16.0,58,30.09,10.0,NW,19.6,31.1,N/A,,Mostly Cloudy,310,2013-03-05 09:53:00
4:53 AM,28.0,16.0,61,30.11,10.0,NW,15.0,24.2,N/A,,Clear,310,2013-03-05 10:53:00
5:53 AM,26.1,17.1,69,30.15,10.0,WNW,10.4,19.6,N/A,,Scattered Clouds,300,2013-03-05 11:53:00
6:53 AM,26.1,14.0,60,30.15,10.0,WNW,15.0,23.0,N/A,,Clear,300,2013-03-05 12:53:00
7:53 AM,27.0,15.1,61,30.16,10.0,WNW,18.4,25.3,N/A,,Mostly Cloudy,300,2013-03-05 13:53:00
8:53 AM,28.0,16.0,61,30.18,10.0,NW,15.0,29.9,N/A,,Overcast,310,2013-03-05 14:53:00
9:53 AM,30.0,17.1,59,30.18,10.0,NW,16.1,27.6,N/A,,Overcast,310,2013-03-05 15:53:00
10:53 AM,34.0,19.0,54,30.18,10.0,NW,20.7,34.5,N/A,,Mostly Cloudy,310,2013-03-05 16:53:00
11:53 AM,32.0,18.0,56,30.22,10.0,NW,21.9,32.2,N/A,,Overcast,310,2013-03-05 17:53:00
1:53 PM,33.1,19.0,56,30.22,10.0,WNW,27.6,38.0,N/A,,Overcast,300,2013-03-05 19:53:00
2:53 PM,34.0,19.0,54,30.24,10.0,NW,28.8,38.0,N/A,,Overcast,320,2013-03-05 20:53:00
3:53 PM,33.1,18.0,54,30.27,10.0,NNW,24.2,39.1,N/A,,Overcast,330,2013-03-05 21:53:00
4:53 PM,34.0,18.0,52,30.28,10.0,NNW,19.6,28.8,N/A,,Overcast,330,2013-03-05 22:53:00
5:53 PM,33.1,17.1,52,30.30,10.0,NNW,19.6,32.2,N/A,,Overcast,330,2013-03-05 23:53:00
6:53 PM,30.0,18.0,61,30.33,10.0,NNW,12.7,27.6,N/A,,Partly Cloudy,330,2013-03-06 00:53:00
7:53 PM,28.4,17.6,64,30.31,10.0,NNW,12.7,18.4,N/A,,Clear,330,2013-03-06 01:53:00
8:53 PM,27.0,18.0,69,30.37,10.0,NNW,12.7,20.7,N/A,,Clear,340,2013-03-06 02:53:00
9:53 PM,26.1,17.1,69,30.39,10.0,NNW,11.5,-,N/A,,Clear,330,2013-03-06 03:53:00
10:53 PM,25.0,17.1,72,30.40,10.0,North,10.4,-,N/A,,Partly Cloudy,350,2013-03-06 04:53:00
11:08 PM,24.8,17.6,74,30.36,10.0,NNW,9.2,-,N/A,,Mostly Cloudy,330,2013-03-06 05:08:00
11:53 PM,26.1,17.1,69,30.41,10.0,NNW,10.4,18.4,N/A,,Overcast,340,2013-03-06 05:53:00